{"data":{"norad_id":64214,"epoch":"2026-05-24T23:43:26.946048Z","epoch_age_seconds":79221,"freshness":"FRESH","line1":"1 64214U 25117M   26144.98850632  .00030452  00000+0  90846-3 0  9994","line2":"2 64214  53.1602  44.0542 0001095  82.5481 277.5646 15.34410037 56228","mean_motion":15.34410037,"eccentricity":0.0001095,"inclination_deg":53.1602,"raan_deg":44.0542,"arg_perigee_deg":82.5481,"mean_anomaly_deg":277.5646,"bstar":0.00090846,"rev_number":5622,"period_min":93.84714419722,"perigee_km":461.92433955081,"apogee_km":463.42247703023,"semimajor_km":6840.8104082905,"source":"CELESTRAK","updated_at":"2026-05-25T13:38:20.319226Z"}}